User: anonymous   Login
Location: Mohawk View
(42.7837°N, 73.7885°W)
Time: 12:43:01
(UTC+00:00)
Language:

GPS 2-04 Rocket1 - Orbit

View from above orbital plane
View from above orbital plane
View from above satellite
View from above satellite

Ground track
Ground track

The orbit data is extracted from the following two-line orbital elements,

1 20303U 89085B   21265.65854521  .00003864  00000-0  11717-3 0  9991
2 20303  35.6438 342.0188 0089046 332.4012  27.2007 15.29898813739367
Epoch (UTC): 22 September 2021 15:48:18
Eccentricity: 0.0089046
inclination: 35.6438°
perigee height: 415 km
apogee height: 537 km
right ascension of ascending node: 342.0188°
argument of perigee: 332.4012°
revolutions per day: 15.29898813
mean anomaly at epoch: 27.2007°
orbit number at epoch: 73936

The dashed part of the orbit path shows where the satellite is in the earth's shadow,  

DLR